Temp
18 18 18 18 19 19 20 20 21 21 21 22 22 23 24 24 25 26 26 26 27 27 27 27 24 25 27 28 29 30 31 20 19 24 25 35 37 36 35 34 34 33 32 29 27
18 18 18 18 18 19 20 20 21 21 22 22 22 22 23 24 25 26 27 27 27 27 27 25 26 27 28 30 31 33 32 21 22 22 20 32 36 36 37 35 33 33 31 29 27
18 18 18 18 19 20 20 21 21 21 22 23 22 22 23 23 24 28 28 28 27 27 26 27 28 29 30 31 32 33 33 35 27 24 30 36 36 36 36 36 31 22 30 28 27
18 18 19 19 20 20 21 21 21 21 21 22 22 22 23 23 28 27 27 27 27 27 25 28 29 30 31 32 33 33 34 35 35 35 35 36 35 36 36 36 32 30 27 29 28
19 19 20 20 20 21 21 21 21 21 21 22 22 22 22 23 26 26 27 27 27 27 25 28 29 30 31 33 33 34 35 35 34 35 35 35 35 35 35 36 36 31 29 29 28
19 20 20 20 21 21 21 20 21 21 21 21 21 22 22 25 28 26 25 27 26 26 26 28 29 30 31 32 32 33 33 34 34 34 34 34 35 35 35 36 36 35 32 31 29
19 19 20 20 20 20 21 21 21 22 21 21 21 22 21 26 27 27 26 25 25 26 27 29 29 30 31 32 32 32 32 33 34 34 35 35 34 35 35 36 36 35 34 32 30
18 19 19 19 19 20 21 21 22 21 21 21 22 21 25 27 27 27 26 27 26 27 28 29 29 30 30 30 31 31 32 31 33 34 35 35 33 36 36 36 36 35 34 33 32
18 18 19 19 20 20 21 22 22 22 22 22 22 21 28 27 26 27 27 27 28 27 28 28 28 29 29 30 29 31 30 31 32 35 35 35 34 37 36 36 35 34 35 34 33
18 18 19 19 20 21 21 22 22 22 22 22 22 24 26 29 28 27 27 27 28 28 29 28 28 29 29 29 27 30 31 32 32 34 35 35 35 36 36 36 36 36 35 35 35
18 18 19 19 20 20 22 23 23 23 22 26 27 28 29 28 27 27 27 27 28 28 29 30 29 28 29 31 31 31 31 31 32 34 33 33 34 35 36 36 36 36 36 35 35
18 18 19 19 20 20 21 22 20 20 22 26 27 27 28 27 29 29 28 28 29 28 30 30 29 31 32 32 32 31 31 31 32 33 33 33 32 34 35 35 35 35 35 35 35
17 18 19 19 20 21 21 20 20 21 23 28 28 29 29 28 29 30 29 29 30 30 31 30 32 33 33 32 31 31 31 31 31 32 33 32 31 33 34 35 34 34 35 35 34
17 18 18 20 20 21 22 20 21 21 25 29 29 29 28 29 30 30 29 29 30 30 31 31 32 32 32 31 31 30 33 32 31 31 29 32 30 32 33 34 35 35 35 35 35
17 18 18 19 20 21 20 20 20 21 26 30 30 28 29 30 30 30 29 29 29 30 31 31 31 31 31 31 32 30 32 31 31 30 30 30 30 31 31 31 32 30 32 35 35
17 18 19 18 18 19 20 20 21 25 27 29 31 30 30 30 31 30 30 29 29 30 31 31 32 32 32 32 31 32 31 30 31 30 29 30 28 28 28 27 29 30 31 32 35
17 18 19 19 20 19 20 22 25 26 30 30 30 31 31 31 32 31 30 30 30 28 29 31 32 33 32 31 32 31 30 28 28 29 29 31 29 29 29 30 30 29 29 31 34
18 18 19 19 18 19 20 24 24 30 30 31 30 30 29 31 31 31 30 30 31 29 29 29 29 31 32 31 30 30 30 28 26 27 28 30 27 29 31 30 29 29 30 31 33
17 18 18 20 19 19 22 24 28 29 29 28 29 29 30 30 29 30 30 30 31 29 27 27 28 31 31 32 31 30 29 31 29 29 29 29 28 29 30 30 30 30 29 24 22
17 19 20 21 20 20 23 23 27 29 28 28 27 29 28 30 29 29 30 31 29 30 29 28 26 29 31 31 32 31 31 29 29 26 26 28 25 28 27 27 29 28 23 19 23
16 20 21 21 20 21 23 26 28 28 26 27 27 28 28 28 28 28 29 30 29 29 28 28 27 27 29 29 30 30 29 29 27 26 25 26 27 24 24 24 20 15 13 14 22
15 21 21 21 22 24 25 27 24 27 27 26 27 26 27 28 27 27 28 29 28 27 26 27 26 25 27 29 30 30 26 27 25 22 25 24 25 25 22 22 20 16 14 15 18
16 20 22 21 22 25 27 28 27 27 27 27 27 27 27 26 25 27 27 29 28 27 26 26 24 23 25 28 29 27 28 26 24 25 23 21 25 25 24 23 19 21 18 18 21
15 22 23 22 22 23 24 25 26 26 26 26 26 26 26 25 26 25 26 28 27 27 24 25 24 23 23 25 26 26 27 28 27 25 25 25 25 22 19 19 19 19 22 21 20
16 21 22 23 24 24 24 25 25 25 26 25 25 25 25 24 25 25 26 27 28 22 26 25 23 24 25 26 26 26 26 27 27 27 26 26 25 19 16 16 15 15 17 19 18
15 18 19 20 21 22 21 23 23 25 25 26 25 25 26 25 24 24 25 25 24 25 24 25 23 23 23 25 25 25 27 27 28 28 28 26 20 17 16 16 16 16 18 19 16
16 16 17 18 21 22 23 23 24 25 25 25 25 25 25 25 23 23 23 23 24 23 23 23 23 22 22 24 25 24 26 27 26 26 23 23 20 17 19 21 21 20 19 18 18
Height
1528 1525 1522 1520 1517 1514 1512 1509 1507 1506 1504 1503 1501 1500 1499 1498 1496 1494 1492 1493 1491 1490 1490 1489 1489 1489 1489 1487 1483 1478 1478 1524 1520 1489 1476 1449 1440 1440 1441 1445 1451 1459 1463 1468 1473
1526 1523 1521 1518 1514 1511 1509 1506 1504 1502 1500 1500 1499 1497 1496 1495 1492 1489 1489 1489 1488 1489 1488 1489 1489 1490 1487 1482 1478 1472 1469 1498 1479 1504 1492 1448 1442 1442 1438 1441 1450 1461 1467 1471 1469
1524 1521 1518 1515 1512 1509 1506 1503 1501 1499 1497 1496 1495 1495 1495 1493 1490 1483 1483 1485 1486 1486 1487 1490 1489 1488 1485 1479 1472 1465 1464 1455 1472 1476 1450 1444 1444 1443 1440 1441 1447 1474 1481 1476 1474
1523 1519 1516 1513 1510 1506 1503 1501 1498 1496 1494 1493 1492 1492 1493 1494 1489 1483 1483 1484 1484 1484 1486 1488 1488 1485 1481 1477 1468 1463 1458 1457 1455 1454 1453 1448 1445 1442 1443 1441 1446 1442 1467 1472 1474
1522 1518 1515 1511 1507 1504 1501 1497 1495 1493 1491 1490 1489 1490 1491 1492 1484 1481 1482 1483 1484 1484 1486 1487 1486 1483 1479 1473 1468 1461 1454 1453 1453 1452 1451 1448 1445 1442 1441 1442 1441 1445 1460 1464 1470
1521 1517 1513 1509 1505 1501 1498 1494 1492 1490 1489 1488 1487 1488 1489 1490 1483 1480 1481 1481 1483 1483 1486 1485 1484 1482 1477 1473 1469 1463 1459 1455 1454 1453 1451 1449 1445 1443 1440 1439 1438 1444 1451 1457 1465
1520 1517 1512 1508 1504 1500 1496 1493 1490 1487 1486 1486 1486 1486 1488 1483 1481 1482 1482 1481 1482 1483 1484 1483 1483 1481 1477 1472 1470 1465 1461 1454 1451 1448 1445 1442 1442 1441 1439 1437 1435 1439 1446 1450 1459
1520 1516 1512 1507 1503 1499 1494 1491 1487 1486 1485 1485 1485 1486 1482 1480 1478 1480 1480 1480 1481 1482 1483 1482 1481 1479 1478 1474 1471 1469 1464 1465 1451 1444 1438 1435 1445 1432 1432 1433 1433 1439 1442 1445 1452
1520 1516 1511 1506 1502 1497 1492 1489 1487 1485 1485 1485 1485 1485 1478 1478 1477 1477 1478 1478 1479 1480 1481 1481 1481 1480 1478 1476 1475 1467 1472 1461 1448 1436 1431 1431 1433 1422 1426 1427 1429 1435 1435 1440 1443
1520 1515 1510 1505 1501 1497 1492 1489 1487 1486 1486 1485 1485 1490 1478 1476 1476 1476 1476 1477 1477 1477 1477 1479 1480 1478 1476 1476 1487 1471 1460 1448 1446 1433 1427 1427 1427 1420 1424 1426 1424 1427 1431 1435 1438
1519 1514 1510 1505 1501 1498 1493 1488 1490 1489 1487 1482 1480 1477 1475 1476 1475 1475 1475 1476 1476 1476 1473 1472 1476 1477 1469 1462 1457 1455 1454 1452 1442 1435 1435 1433 1426 1421 1418 1419 1421 1422 1425 1428 1432
1519 1514 1510 1505 1502 1500 1497 1497 1498 1499 1488 1478 1477 1477 1475 1475 1472 1471 1474 1474 1472 1473 1468 1469 1469 1457 1452 1449 1451 1451 1453 1449 1437 1431 1433 1432 1430 1422 1418 1418 1419 1420 1421 1423 1427
1519 1514 1509 1505 1502 1501 1502 1500 1499 1498 1491 1472 1473 1472 1472 1474 1469 1466 1471 1468 1465 1463 1459 1461 1452 1444 1443 1445 1449 1446 1448 1444 1442 1432 1429 1431 1429 1423 1416 1415 1415 1416 1416 1417 1422
1518 1513 1509 1504 1504 1502 1503 1501 1500 1498 1488 1466 1470 1469 1471 1470 1466 1467 1467 1468 1464 1460 1454 1453 1445 1444 1446 1449 1446 1451 1432 1434 1435 1439 1448 1426 1441 1418 1412 1409 1407 1407 1408 1408 1411
1518 1513 1510 1505 1505 1505 1504 1501 1499 1499 1493 1465 1464 1468 1467 1467 1463 1463 1467 1466 1463 1458 1454 1453 1446 1446 1448 1445 1440 1445 1435 1436 1436 1439 1436 1432 1437 1418 1412 1413 1407 1406 1401 1399 1402
1518 1514 1510 1507 1505 1505 1503 1501 1500 1497 1489 1464 1461 1462 1462 1461 1459 1462 1462 1465 1460 1457 1451 1448 1442 1439 1438 1438 1440 1437 1438 1436 1431 1429 1445 1421 1435 1433 1428 1422 1417 1414 1405 1402 1397
1517 1513 1509 1507 1506 1505 1503 1501 1495 1488 1458 1460 1458 1458 1455 1455 1452 1454 1457 1455 1457 1467 1456 1442 1433 1426 1433 1441 1435 1434 1439 1454 1453 1442 1439 1413 1427 1422 1412 1410 1415 1414 1409 1403 1394
1514 1510 1508 1505 1503 1505 1504 1499 1501 1458 1458 1456 1463 1459 1462 1453 1451 1452 1456 1457 1446 1455 1459 1456 1455 1434 1432 1437 1441 1439 1439 1455 1471 1457 1440 1414 1441 1422 1406 1407 1406 1407 1413 1411 1390
1512 1508 1506 1505 1503 1504 1505 1496 1476 1465 1464 1467 1465 1462 1455 1451 1461 1455 1455 1452 1446 1453 1471 1468 1459 1437 1435 1430 1429 1435 1440 1422 1435 1430 1433 1423 1423 1411 1405 1405 1411 1407 1408 1417 1402
1509 1504 1502 1504 1504 1505 1501 1492 1474 1467 1471 1471 1475 1461 1466 1452 1458 1455 1453 1446 1452 1454 1458 1461 1470 1446 1436 1430 1424 1426 1422 1440 1430 1455 1454 1428 1440 1417 1417 1418 1414 1415 1416 1413 1407
1511 1506 1500 1502 1503 1502 1494 1479 1468 1469 1476 1474 1470 1467 1464 1463 1460 1461 1457 1448 1452 1457 1461 1459 1459 1453 1439 1436 1432 1430 1431 1429 1436 1448 1460 1449 1436 1429 1426 1432 1442 1445 1441 1434 1410
1514 1506 1499 1501 1501 1490 1483 1471 1475 1471 1473 1475 1472 1472 1469 1464 1465 1464 1459 1452 1458 1462 1466 1460 1461 1465 1454 1435 1428 1427 1440 1440 1456 1468 1449 1462 1444 1425 1417 1432 1448 1450 1445 1456 1452
1513 1502 1497 1498 1493 1478 1471 1466 1471 1473 1470 1470 1468 1467 1466 1469 1475 1465 1459 1455 1457 1461 1464 1466 1469 1477 1459 1436 1430 1442 1435 1441 1448 1446 1454 1476 1439 1423 1421 1429 1443 1435 1448 1448 1439
1515 1496 1489 1491 1490 1486 1481 1474 1468 1469 1473 1472 1469 1469 1467 1469 1466 1467 1462 1458 1458 1459 1465 1466 1468 1473 1474 1458 1443 1448 1437 1430 1435 1445 1440 1441 1431 1428 1429 1426 1444 1440 1433 1431 1434
1514 1499 1494 1488 1480 1482 1478 1476 1472 1469 1466 1471 1470 1470 1469 1472 1466 1464 1460 1456 1454 1459 1460 1463 1467 1459 1453 1447 1444 1442 1436 1428 1426 1423 1431 1423 1425 1438 1435 1430 1437 1439 1443 1433 1427
1513 1506 1501 1496 1490 1487 1484 1482 1479 1472 1469 1465 1468 1467 1464 1465 1467 1470 1464 1462 1463 1461 1463 1462 1465 1460 1459 1450 1444 1440 1428 1423 1419 1414 1411 1419 1440 1451 1437 1434 1437 1425 1437 1432 1429
1512 1510 1507 1499 1491 1483 1477 1474 1471 1469 1469 1467 1465 1465 1465 1465 1469 1470 1468 1467 1466 1464 1462 1461 1461 1464 1464 1449 1442 1446 1429 1419 1419 1421 1428 1436 1444 1440 1447 1436 1436 1435 1435 1432 1427
Wind_Speed
22 21 21 20 21 21 21 20 19 18 18 17 17 17 16 17 18 19 17 12 13 12 13 10 13 14 15 21 21 23 15 9 6 15 24 17 9 10 7 16 9 4 15 27 30
22 22 21 21 22 22 21 21 21 20 19 18 16 16 16 17 19 22 17 17 19 15 14 15 15 15 19 21 21 16 15 15 22 26 15 23 9 10 9 20 16 11 17 28 33
22 22 21 22 22 22 21 21 21 20 19 17 15 14 13 13 16 6 7 15 16 13 12 15 13 15 20 23 25 26 17 20 23 54 20 15 11 10 14 6 34 26 11 27 30
21 22 21 21 21 22 21 21 20 20 19 17 14 11 9 6 5 1 2 3 5 10 14 17 17 20 18 19 26 21 24 23 21 25 27 20 20 13 14 16 8 23 36 28 27
21 21 21 21 22 23 22 21 20 18 17 14 11 8 6 8 17 9 8 9 5 8 15 17 19 19 18 18 23 22 21 24 24 24 23 23 21 17 16 15 6 26 36 29 24
22 22 23 23 24 23 22 22 20 19 14 10 7 5 5 13 4 6 6 12 10 11 14 16 18 19 24 22 21 26 28 27 27 27 26 23 23 22 22 18 6 9 27 25 22
23 23 23 24 23 21 20 18 19 17 10 6 4 4 9 17 5 7 7 8 13 15 15 16 17 20 22 18 24 27 23 20 21 24 23 26 21 22 26 22 18 15 13 22 23
24 24 24 24 22 21 17 17 11 8 5 3 2 5 7 3 13 10 10 10 9 16 16 17 17 21 23 24 24 23 25 21 22 23 25 22 19 20 26 21 18 5 19 20 24
25 24 23 23 22 19 17 11 8 5 3 2 3 4 8 5 3 4 10 12 11 12 12 13 14 19 19 16 18 19 21 24 24 22 22 20 19 17 19 18 14 36 19 20 26
25 24 23 23 21 17 14 6 7 5 2 2 3 8 9 2 2 5 6 9 12 14 17 16 17 13 15 15 16 20 20 21 23 21 23 18 19 18 16 24 25 15 16 17 20
25 24 23 21 16 15 20 12 7 1 7 12 6 11 2 5 5 5 7 6 8 10 13 16 12 14 18 20 22 23 25 26 23 22 23 24 24 19 18 18 21 22 20 21 24
25 24 22 20 12 12 16 11 9 8 12 13 9 8 6 4 5 6 6 8 12 11 13 13 16 21 21 17 18 20 23 24 25 22 21 22 24 24 22 21 23 26 25 22 24
25 24 23 17 8 13 8 10 10 11 8 12 12 9 4 5 10 7 8 12 11 13 14 15 17 16 16 13 17 19 17 20 21 20 21 22 25 22 24 25 27 32 32 23 26
25 25 24 17 6 11 4 12 11 9 5 9 9 7 7 6 9 9 6 8 12 13 11 10 14 10 11 15 16 20 18 18 18 18 18 19 18 16 19 20 22 29 35 36 31
23 23 20 15 8 8 11 13 12 4 5 7 10 5 3 7 7 12 3 8 13 14 13 15 17 14 14 14 14 18 17 17 18 19 20 22 14 14 16 15 15 24 36 24 28
21 21 17 11 7 9 14 13 7 5 3 6 2 6 13 15 11 5 10 10 14 13 14 17 19 16 15 8 13 13 15 15 18 17 14 17 3 9 12 14 15 18 26 41 28
20 18 16 8 2 12 13 9 6 6 3 4 0 3 8 8 9 8 9 10 6 6 13 16 14 12 2 10 13 14 14 12 13 12 14 12 7 11 11 16 8 11 32 41 32
20 17 13 8 7 10 10 9 6 9 3 6 8 10 13 14 4 13 6 13 8 5 11 11 4 10 5 9 10 14 13 8 17 14 18 17 9 10 12 5 13 19 32 30 27
20 13 12 10 4 5 9 7 7 11 7 9 13 13 15 7 4 7 11 13 5 8 6 10 15 21 15 21 7 16 15 18 13 17 15 10 10 18 11 5 2 17 28 33 40
23 17 12 10 5 5 7 10 15 5 8 11 12 7 12 8 3 11 4 2 2 2 7 12 17 18 20 20 15 19 14 15 12 14 17 8 9 5 10 14 12 15 18 26 41
16 10 7 5 3 10 9 14 13 5 2 7 11 11 11 10 9 10 9 6 7 5 10 15 15 15 14 15 15 10 11 10 7 8 9 15 6 12 20 21 24 23 36 40 28
11 7 7 5 10 12 11 15 6 8 7 7 8 11 13 12 8 12 12 2 8 5 10 13 12 13 18 21 21 11 5 8 3 6 9 10 8 14 15 19 16 20 28 14 23
8 17 13 6 6 10 15 18 6 11 13 10 9 8 9 7 7 9 9 10 9 6 6 7 7 12 13 16 8 9 18 2 7 7 9 9 14 5 8 11 14 14 14 18 23
7 5 11 12 15 15 15 14 12 12 10 15 11 14 12 9 13 11 14 10 10 9 5 6 13 16 13 18 21 19 19 15 11 11 13 15 14 9 15 19 13 18 23 5 2
6 6 11 7 9 12 12 13 15 15 12 9 10 12 14 13 14 12 15 15 14 11 8 10 14 15 18 21 21 22 23 25 20 22 19 20 4 7 3 6 10 25 38 4 6
7 11 15 18 18 14 11 15 16 16 16 13 9 14 14 10 8 14 15 12 11 15 14 13 14 15 20 21 22 24 24 21 22 23 21 12 15 7 3 7 8 12 21 3 7
10 11 12 12 15 13 11 13 15 12 15 18 12 14 12 7 12 16 18 18 17 17 17 15 12 13 18 20 20 18 21 18 13 18 10 11 8 12 8 5 8 4 5 8 6
Wind_Direction
335 332 331 329 326 322 316 312 308 306 304 303 305 302 301 301 298 293 284 267 269 273 261 255 222 236 250 259 264 268 273 78 343 326 336 327 13 50 143 143 135 108 132 154 153
333 330 327 325 323 320 315 311 310 308 302 300 299 295 298 301 297 281 271 263 264 266 239 209 218 229 248 266 266 258 272 170 162 241 285 295 31 319 325 140 140 121 132 154 155
335 331 327 324 325 324 321 316 314 310 305 303 299 291 294 307 308 253 258 236 253 249 212 214 235 235 253 266 272 276 268 295 199 201 238 325 332 348 321 2 125 135 262 166 166
338 335 331 331 329 325 322 319 316 314 310 306 300 290 284 287 289 27 196 189 219 224 202 223 237 250 253 268 274 273 277 275 293 303 312 316 312 320 294 319 147 99 214 169 173
341 338 336 335 331 327 324 323 319 318 313 308 296 284 269 247 262 251 241 253 253 206 212 227 236 247 263 269 278 284 289 295 295 296 296 295 294 298 287 292 356 155 183 166 174
343 341 339 336 333 330 329 325 321 317 314 304 290 273 241 253 241 299 239 242 241 213 226 238 243 252 269 279 283 296 302 298 296 293 293 291 290 283 280 269 266 150 154 166 177
347 344 339 335 333 332 328 322 317 312 312 298 281 245 239 235 228 264 242 255 218 224 238 243 254 262 273 269 279 280 280 289 284 280 273 266 264 259 263 263 262 167 183 166 180
346 344 339 337 338 335 331 328 329 323 322 297 256 210 244 236 233 251 241 237 236 227 245 255 263 264 271 281 287 283 282 281 277 274 274 275 257 262 256 251 253 311 176 183 186
346 345 343 341 342 343 342 346 23 30 52 138 111 208 259 302 221 254 232 237 243 230 248 256 267 266 276 269 271 264 265 267 272 269 271 277 277 259 256 256 198 220 193 189 192
347 347 345 343 348 354 355 321 329 15 43 230 258 251 249 242 262 261 235 235 240 246 244 241 246 257 253 250 261 276 282 290 296 302 304 279 263 267 248 264 267 249 223 222 227
347 347 345 344 352 9 21 6 338 319 250 275 277 268 247 290 274 238 219 216 241 246 256 223 233 242 245 254 261 268 273 275 276 285 286 292 296 294 290 256 247 256 254 226 247
347 347 345 344 358 23 20 29 28 331 300 279 243 252 264 279 259 207 194 222 203 241 244 240 247 245 252 260 270 281 281 282 283 278 281 278 277 282 279 268 262 263 265 260 262
346 347 346 349 20 12 9 10 348 335 266 261 214 253 248 235 270 163 196 240 256 265 251 256 272 290 284 276 277 274 274 289 289 289 276 280 278 274 271 266 262 269 266 256 248
344 345 348 357 15 12 25 349 341 336 278 159 204 236 224 235 250 222 259 273 278 263 294 298 289 299 305 285 277 279 282 282 294 299 291 297 291 272 269 262 250 243 242 241 241
341 339 349 351 340 10 325 332 329 312 291 176 137 129 239 242 337 195 209 274 261 285 296 278 302 300 288 296 308 299 304 302 295 286 284 281 273 283 328 306 322 335 316 223 248
336 334 342 337 349 344 325 318 318 238 241 145 180 218 216 214 220 257 208 218 267 282 271 262 259 255 252 278 293 301 295 286 268 259 260 269 311 304 298 288 331 308 313 292 247
331 327 322 298 261 324 327 319 258 249 158 132 243 269 276 286 232 209 290 245 267 267 301 324 264 247 321 304 279 252 263 272 285 292 293 347 279 299 235 267 298 285 291 305 285
328 325 329 297 282 313 322 275 263 298 308 87 294 277 275 275 251 253 259 269 183 213 315 310 348 26 21 280 281 298 306 290 291 304 310 317 308 310 332 165 243 259 302 286 305
328 331 298 323 296 291 291 253 274 354 17 344 317 266 270 177 240 296 250 269 352 33 330 317 303 329 307 292 259 279 268 277 288 281 286 331 340 303 330 291 194 288 295 327 357
330 326 258 210 244 270 263 257 299 320 340 302 287 290 304 313 199 287 270 32 1 125 336 310 298 299 300 287 264 259 285 290 285 299 289 268 256 266 5 2 319 333 352 355 333
332 296 165 208 231 251 253 272 307 347 327 295 290 302 282 289 311 299 299 312 71 2 335 300 291 308 308 280 305 322 273 308 337 327 307 312 21 39 15 5 58 42 20 16 340
297 275 171 201 255 245 254 252 344 286 253 260 273 280 287 297 301 287 284 314 94 356 303 314 319 300 297 294 293 325 42 359 299 285 306 302 293 34 32 17 353 95 64 316 237
285 278 265 254 259 254 268 251 244 271 267 265 255 255 287 286 290 270 288 329 349 330 5 349 318 312 300 283 64 337 304 208 239 260 285 301 274 41 63 20 345 301 198 227 262
292 288 211 216 257 277 290 291 293 234 251 294 297 297 297 273 274 264 267 262 287 275 81 309 276 268 275 295 313 307 295 270 270 271 279 243 252 27 16 346 346 328 299 278 349
253 268 346 296 297 338 320 306 299 297 201 236 275 256 265 276 288 296 291 288 290 147 317 302 288 281 288 295 302 297 290 285 267 246 248 267 317 115 169 272 294 8 332 331 96
289 338 326 303 296 282 275 271 277 278 276 275 235 258 286 293 279 289 299 310 312 319 307 291 290 298 290 285 283 281 287 278 280 281 291 359 71 232 260 213 246 190 244 347 57
290 303 282 284 287 285 268 275 276 262 279 281 297 291 298 337 352 319 306 296 284 277 275 274 277 288 284 290 291 283 277 285 327 327 350 329 12 99 281 257 282 337 327 63 73